Location: Krakow
(50.0212°N, 19.9423°E)
Time: 22:58:59
(UTC+02:00)

NOAA 18 - Pass Details

Date: 21 August 2024
Orbit: 837 x 859 km, 98.9° (Epoch: 19 September)

Event Time Altitude Azimuth Distance (km) Brightness Sun altitude
Exits shadow 00:13:43 17° 256° (WSW) 2,045 7.1 -27.6°
Maximum altitude 00:14:53 18° 272° (W) 1,991 7.2 -27.6°
Drops below altitude 10° 00:18:35 10° 314° (NW) 2,504 8.3 -27.7°
Sets 00:21:48 0° 333° (NNW) 3,446 9.4 -27.8°
